Tracking 19638 objects as of 19-Apr-2019
HD Live streaming from Space Station
objects crossing your sky now

COSMOS 1823 DEB

Track COSMOS 1823 DEB now!
10-day predictions


NORAD ID: 39808
Int'l Code: 1987-020EG
Perigee: 1,464.6 km
Apogee: 1,534.5 km
Inclination: 73.6 °
Period: 115.8 minutes
Semi major axis: 7870 km
RCS: 0.0205 m2 (small)
Launch date: February 20, 1987
Source: Commonwealth of Independent States (former USSR) (CIS)
Launch site: PLESETSK MISSILE AND SPACE COMPLEX (PKMTR)

Note: This is SATELLITE DEBRIS
aabbcc
Your satellite tracking list
Your tracking list is empty




NASA's NSSDC Master Catalog

Two Line Element Set (TLE):
1 39808U 87020EG  19109.31504698  .00000118  00000-0  96540-3 0  9998
2 39808  73.6226 326.3801 0044399 351.6224 122.0917 12.43365470732235
Source of the keplerian elements: AFSPC